This demonstration page uses our WeatherBlox Daily Observations layout. Learn more.

Left ArrowRight Arrow

44.89941, -97.11507

Hourly Observations for November 22, 2019

Temp ( °F °C ) Dew Point ( °F °C ) Humidity (%) Winds ( mph kmh ) Pressure ( in mb ) Visibility ( mi km ) Precip ( " mm )
12:53 am 00:53 Clear 14 -10 11 -11.7 88 88 NNW 5 7 30.30 1026 10 16 0.00 0.00
1:53 am 01:53 Clear 14 -10 11 -11.7 88 88 Calm 30.28 1026 10 16 0.00 0.00
2:53 am 02:53 Clear 13 -10.6 11 -11.7 92 92 Calm 30.29 1026 10 16 0.00 0.00
3:53 am 03:53 Clear 14 -10 11 -11.7 88 88 WSW 3 6 30.27 1025 10 16 0.00 0.00
4:53 am 04:53 Clear 12 -11.1 10 -12.2 92 92 Calm 30.27 1025 10 16 0.00 0.00
5:53 am 05:53 Clear 14 -10 13 -10.6 95 95 SSW 5 7 30.27 1025 10 16 0.00 0.00
6:53 am 06:53 Clear 14 -10 11 -11.7 88 88 Calm 30.26 1025 10 16 0.00 0.00
7:53 am 07:53 Sunny 15 -9.4 11 -11.7 84 84 Calm 30.26 1025 10 16 0.00 0.00
8:53 am 08:53 Sunny 19 -7.2 15 -9.4 84 84 SSE 6 9 30.24 1024 10 16 0.00 0.00
9:53 am 09:53 Sunny 24 -4.4 19 -7.2 81 81 S 8 13 30.22 1024 10 16 0.00 0.00
10:53 am 10:53 Sunny 28 -2.2 21 -6.1 75 75 SSW 13 20 30.21 1023 10 16 0.00 0.00
11:53 am 11:53 Sunny 31 -0.6 21 -6.1 67 67 SSW 10 17 30.17 1022 10 16 0.00 0.00
12:53 pm 12:53 Sunny 35 1.7 21 -6.1 57 57 SW 14 22 30.14 1021 10 16 0.00 0.00
1:53 pm 13:53 Sunny 36 2.2 22 -5.6 57 57 SSW 15 24 30.10 1019 10 16 0.00 0.00
2:53 pm 14:53 Sunny 36 2.2 21 -6.1 55 55 SSW 17 28 30.07 1018 10 16 0.00 0.00
3:53 pm 15:53 Sunny 35 1.7 22 -5.6 59 59 SSW 14 22 30.05 1018 10 16 0.00 0.00
4:53 pm 16:53 Sunny 31 -0.6 22 -5.6 69 69 S 9 15 30.03 1017 10 16 0.00 0.00
5:53 pm 17:53 Clear 29 -1.7 22 -5.6 75 75 S 9 15 30.01 1016 10 16 0.00 0.00
6:53 pm 18:53 Clear 29 -1.7 22 -5.6 75 75 S 13 20 29.99 1016 10 16 0.00 0.00
7:53 pm 19:53 Clear 28 -2.2 22 -5.6 78 78 S 12 19 29.96 1015 10 16 0.00 0.00
8:53 pm 20:53 Clear 27 -2.8 22 -5.6 81 81 SSW 13 20 29.95 1014 10 16 0.00 0.00
9:53 pm 21:53 Clear 28 -2.2 20 -6.7 72 72 S 13 20 29.91 1013 10 16 0.00 0.00
10:53 pm 22:53 Clear 30 -1.1 20 -6.7 66 66 SSW 15 24 29.87 1012 10 16 0.00 0.00
11:53 pm 23:53 Clear 29 -1.7 20 -6.7 69 69 SSW 10 17 29.85 1011 10 16 0.00 0.00

Powered by AerisWeather